ANS644 SGAS-SABE

Flight info

Callsign ANS644
Flight time 1h 39m
Altitude 34000
Route ITAPE ASATI UP526 REPAM UZ103 DALAB UL793 GUA UZ129 PAGON PAGON9R
Aircraft B738/M-SDE2E3FGHIRWXY/LB1

Departure

Time 2026-04-23 17:16
Airport Silvio Pettirossi International Airport (SGAS)

Arrival

Time 2026-04-23 18:55
Airport Aeroparque Jorge Newbery (SABE)
Time Latitude Longitude Altitude Speed Heading
2026-04-23 17:02 -25.24463 -57.51813 284 ft 8 kts 191°
2026-04-23 17:03 -25.24515 -57.51825 284 ft 7 kts 192°
2026-04-23 17:03 -25.24564 -57.51837 285 ft 7 kts 192°
2026-04-23 17:03 -25.24612 -57.51848 285 ft 7 kts 192°
2026-04-23 17:03 -25.24659 -57.51860 286 ft 7 kts 192°
2026-04-23 17:04 -25.24705 -57.51871 287 ft 7 kts 192°
2026-04-23 17:04 -25.24750 -57.51882 287 ft 7 kts 192°
2026-04-23 17:04 -25.24796 -57.51893 288 ft 8 kts 192°
2026-04-23 17:04 -25.24875 -57.51912 293 ft 12 kts 192°
2026-04-23 17:05 -25.24959 -57.51932 291 ft 12 kts 192°
2026-04-23 17:05 -25.25039 -57.51951 291 ft 12 kts 193°
2026-04-23 17:05 -25.25117 -57.51971 292 ft 11 kts 192°
2026-04-23 17:05 -25.25194 -57.51989 293 ft 11 kts 192°
2026-04-23 17:06 -25.25269 -57.52007 299 ft 11 kts 192°
2026-04-23 17:06 -25.25341 -57.52024 298 ft 10 kts 193°
2026-04-23 17:06 -25.25411 -57.52042 300 ft 10 kts 191°
2026-04-23 17:06 -25.25478 -57.52062 297 ft 10 kts 215°
2026-04-23 17:07 -25.25478 -57.52135 300 ft 10 kts 282°
2026-04-23 17:07 -25.25472 -57.52163 298 ft 0 kts 282°
2026-04-23 17:14 -25.25469 -57.52180 301 ft 7 kts 282°
2026-04-23 17:15 -25.25455 -57.52241 297 ft 9 kts 297°
2026-04-23 17:15 -25.25396 -57.52255 297 ft 11 kts 11°
2026-04-23 17:15 -25.25152 -57.52196 294 ft 71 kts 12°
2026-04-23 17:15 -25.24438 -57.52023 285 ft 136 kts 12°
2026-04-23 17:16 -25.23358 -57.51760 508 ft 170 kts 13°
2026-04-23 17:16 -25.22227 -57.51477 1294 ft 171 kts 12°
2026-04-23 17:16 -25.21061 -57.51190 2106 ft 167 kts 12°
2026-04-23 17:16 -25.19885 -57.50908 2725 ft 185 kts 11°
2026-04-23 17:17 -25.18517 -57.50584 2915 ft 215 kts 11°
2026-04-23 17:17 -25.17026 -57.50225 3331 ft 226 kts 11°
2026-04-23 17:17 -25.15978 -57.49978 3726 ft 233 kts 11°
2026-04-23 17:17 -25.13731 -57.49390 4228 ft 260 kts 20°
2026-04-23 17:18 -25.11026 -57.46794 6064 ft 267 kts 55°
2026-04-23 17:18 -25.10280 -57.44892 6841 ft 276 kts 73°
2026-04-23 17:18 -25.10134 -57.42752 7571 ft 287 kts 94°
2026-04-23 17:19 -25.10727 -57.40616 8300 ft 298 kts 117°
2026-04-23 17:19 -25.12021 -57.38816 9097 ft 305 kts 138°
2026-04-23 17:19 -25.13837 -57.37655 9827 ft 310 kts 163°
2026-04-23 17:19 -25.15985 -57.37347 10511 ft 314 kts 180°
2026-04-23 17:20 -25.18211 -57.37519 10829 ft 332 kts 192°
2026-04-23 17:20 -25.22970 -57.38750 11574 ft 361 kts 196°
2026-04-23 17:21 -25.27885 -57.40119 13017 ft 366 kts 196°
2026-04-23 17:21 -25.29518 -57.40577 13480 ft 368 kts 196°
2026-04-23 17:21 -25.35356 -57.42209 15024 ft 377 kts 196°
2026-04-23 17:22 -25.37917 -57.42922 15710 ft 380 kts 196°
2026-04-23 17:22 -25.43089 -57.44365 16946 ft 387 kts 196°
2026-04-23 17:23 -25.47542 -57.45057 17907 ft 397 kts 174°
2026-04-23 17:23 -25.50249 -57.44365 18458 ft 401 kts 165°
2026-04-23 17:23 -25.56615 -57.42585 19458 ft 407 kts 180°
2026-04-23 17:24 -25.58489 -57.42669 19753 ft 406 kts 190°
2026-04-23 17:24 -25.61278 -57.43189 20245 ft 407 kts 194°
2026-04-23 17:24 -25.66850 -57.44457 21125 ft 413 kts 195°
2026-04-23 17:25 -25.72549 -57.45745 22009 ft 420 kts 194°
2026-04-23 17:25 -25.75423 -57.46370 22440 ft 423 kts 194°
2026-04-23 17:26 -25.81198 -57.47603 23251 ft 429 kts 194°
2026-04-23 17:26 -25.87095 -57.48852 23973 ft 434 kts 194°
2026-04-23 17:27 -25.93050 -57.50115 24685 ft 437 kts 195°
2026-04-23 17:27 -25.96042 -57.50751 25021 ft 439 kts 195°
2026-04-23 17:27 -25.99005 -57.51382 25357 ft 441 kts 195°
2026-04-23 17:27 -26.02021 -57.52024 25684 ft 443 kts 195°
2026-04-23 17:28 -26.05049 -57.52669 26014 ft 444 kts 195°
2026-04-23 17:28 -26.08091 -57.53306 26339 ft 447 kts 193°
2026-04-23 17:28 -26.11223 -57.53613 26637 ft 454 kts 186°
2026-04-23 17:28 -26.14362 -57.53663 26950 ft 457 kts 184°
2026-04-23 17:29 -26.17568 -57.53630 27250 ft 460 kts 184°
2026-04-23 17:29 -26.20786 -57.53584 27549 ft 462 kts 184°
2026-04-23 17:29 -26.27232 -57.53554 28098 ft 465 kts 185°
2026-04-23 17:30 -26.30482 -57.53571 28382 ft 467 kts 185°
2026-04-23 17:30 -26.36905 -57.53636 28963 ft 470 kts 186°
2026-04-23 17:30 -26.40281 -57.53675 29250 ft 472 kts 186°
2026-04-23 17:31 -26.43511 -57.53713 29503 ft 474 kts 186°
2026-04-23 17:31 -26.46831 -57.53750 29762 ft 476 kts 186°
2026-04-23 17:31 -26.50148 -57.53787 30043 ft 477 kts 186°
2026-04-23 17:31 -26.53457 -57.53822 30364 ft 476 kts 187°
2026-04-23 17:32 -26.56763 -57.53856 30760 ft 472 kts 187°
2026-04-23 17:32 -26.60036 -57.53888 31154 ft 469 kts 187°
2026-04-23 17:32 -26.63294 -57.53923 31504 ft 468 kts 187°
2026-04-23 17:32 -26.66550 -57.53958 31817 ft 467 kts 187°
2026-04-23 17:33 -26.69795 -57.53995 32130 ft 466 kts 187°
2026-04-23 17:33 -26.72991 -57.54030 32473 ft 465 kts 187°
2026-04-23 17:33 -26.76216 -57.54065 32839 ft 463 kts 187°
2026-04-23 17:33 -26.79429 -57.54100 33162 ft 462 kts 188°
2026-04-23 17:34 -26.82648 -57.54135 33465 ft 462 kts 188°
2026-04-23 17:34 -26.85853 -57.54171 33734 ft 462 kts 188°
2026-04-23 17:34 -26.92282 -57.54330 34017 ft 464 kts 189°
2026-04-23 17:35 -26.95502 -57.54434 34036 ft 463 kts 189°
2026-04-23 17:35 -27.05121 -57.54732 34039 ft 459 kts 188°
2026-04-23 17:36 -27.11453 -57.54917 34043 ft 458 kts 188°
2026-04-23 17:36 -27.17820 -57.55103 34042 ft 458 kts 188°
2026-04-23 17:37 -27.24198 -57.55288 34045 ft 459 kts 188°
2026-04-23 17:38 -27.33772 -57.55567 34048 ft 459 kts 188°
2026-04-23 17:38 -27.40125 -57.55752 34057 ft 461 kts 188°
2026-04-23 17:39 -27.46435 -57.56593 34050 ft 454 kts 200°
2026-04-23 17:39 -27.52583 -57.58235 34046 ft 455 kts 201°
2026-04-23 17:40 -27.58736 -57.59908 34037 ft 454 kts 200°
2026-04-23 17:40 -27.64888 -57.61533 34045 ft 454 kts 200°
2026-04-23 17:41 -27.70993 -57.63123 34049 ft 453 kts 200°
2026-04-23 17:41 -27.80189 -57.65515 34052 ft 451 kts 200°
2026-04-23 17:42 -27.89361 -57.67908 34053 ft 450 kts 200°
2026-04-23 17:43 -27.95467 -57.69504 34060 ft 450 kts 201°
2026-04-23 17:43 -28.01523 -57.71089 34068 ft 450 kts 201°
2026-04-23 17:44 -28.07631 -57.72689 34068 ft 450 kts 201°
2026-04-23 17:44 -28.16795 -57.75094 34069 ft 451 kts 201°
2026-04-23 17:45 -28.25947 -57.77499 34070 ft 453 kts 201°
2026-04-23 17:46 -28.35180 -57.79912 34078 ft 455 kts 201°
2026-04-23 17:46 -28.41358 -57.81505 34079 ft 456 kts 201°
2026-04-23 17:47 -28.47551 -57.83105 34079 ft 457 kts 201°
2026-04-23 17:48 -28.56813 -57.85505 34084 ft 458 kts 201°
2026-04-23 17:48 -28.63023 -57.87118 34093 ft 458 kts 202°
2026-04-23 17:49 -28.69240 -57.88735 34078 ft 458 kts 202°
2026-04-23 17:49 -28.75436 -57.90347 34078 ft 457 kts 202°
2026-04-23 17:50 -28.81622 -57.91959 34090 ft 455 kts 202°
2026-04-23 17:50 -28.90815 -57.94359 34087 ft 453 kts 202°
2026-04-23 17:51 -28.96952 -57.95964 34088 ft 452 kts 202°
2026-04-23 17:52 -29.06128 -57.98368 34101 ft 450 kts 202°
2026-04-23 17:52 -29.15249 -58.00762 34099 ft 450 kts 201°
2026-04-23 17:53 -29.24413 -58.03172 34099 ft 451 kts 201°
2026-04-23 17:54 -29.30550 -58.04788 34107 ft 453 kts 201°
2026-04-23 17:54 -29.39803 -58.07228 34111 ft 457 kts 201°
2026-04-23 17:55 -29.49232 -58.09403 34115 ft 465 kts 198°
2026-04-23 17:56 -29.55603 -58.10657 34113 ft 469 kts 198°
2026-04-23 17:56 -29.65293 -58.12644 34121 ft 474 kts 198°
2026-04-23 17:57 -29.71809 -58.14006 34119 ft 477 kts 198°
2026-04-23 17:58 -29.81610 -58.16054 34127 ft 478 kts 198°
2026-04-23 17:58 -29.88126 -58.17337 34123 ft 478 kts 197°
2026-04-23 17:59 -29.94696 -58.18568 34119 ft 478 kts 198°
2026-04-23 17:59 -30.01260 -58.19805 34127 ft 478 kts 198°
2026-04-23 18:00 -30.07819 -58.21057 34131 ft 478 kts 198°
2026-04-23 18:00 -30.14387 -58.22317 34137 ft 479 kts 198°
2026-04-23 18:01 -30.20927 -58.23573 34141 ft 480 kts 199°
2026-04-23 18:01 -30.27533 -58.24843 34139 ft 482 kts 199°
2026-04-23 18:02 -30.34168 -58.26119 34138 ft 484 kts 199°
2026-04-23 18:02 -30.40815 -58.27399 34146 ft 485 kts 199°
2026-04-23 18:03 -30.47446 -58.28678 34146 ft 487 kts 199°
2026-04-23 18:03 -30.54129 -58.29968 34146 ft 487 kts 199°
2026-04-23 18:04 -30.60822 -58.31268 34144 ft 486 kts 200°
2026-04-23 18:04 -30.67420 -58.32693 34128 ft 478 kts 201°
2026-04-23 18:05 -30.73937 -58.34157 34153 ft 477 kts 201°
2026-04-23 18:05 -30.80419 -58.35595 34153 ft 478 kts 201°
2026-04-23 18:06 -30.86948 -58.37030 34150 ft 478 kts 201°
2026-04-23 18:06 -30.93498 -58.38435 34150 ft 479 kts 200°
2026-04-23 18:07 -31.00080 -58.39755 34152 ft 480 kts 200°
2026-04-23 18:07 -31.06672 -58.41069 34145 ft 480 kts 200°
2026-04-23 18:08 -31.12142 -58.42170 34142 ft 480 kts 200°
2026-04-23 18:08 -31.19778 -58.43718 34148 ft 479 kts 201°
2026-04-23 18:09 -31.26348 -58.45055 34139 ft 478 kts 201°
2026-04-23 18:09 -31.32898 -58.46388 34137 ft 477 kts 201°
2026-04-23 18:10 -31.39437 -58.47722 34135 ft 477 kts 201°
2026-04-23 18:10 -31.45923 -58.49047 34135 ft 476 kts 201°
2026-04-23 18:11 -31.52440 -58.50380 34135 ft 475 kts 201°
2026-04-23 18:11 -31.58948 -58.51712 34134 ft 475 kts 201°
2026-04-23 18:12 -31.65458 -58.53048 34134 ft 475 kts 201°
2026-04-23 18:12 -31.71975 -58.54387 34131 ft 475 kts 201°
2026-04-23 18:13 -31.78484 -58.55726 34135 ft 475 kts 201°
2026-04-23 18:13 -31.85009 -58.57070 34136 ft 476 kts 201°
2026-04-23 18:14 -31.91531 -58.58415 34135 ft 476 kts 201°
2026-04-23 18:14 -31.98060 -58.59764 34136 ft 476 kts 201°
2026-04-23 18:15 -32.04575 -58.61111 34132 ft 475 kts 201°
2026-04-23 18:15 -32.11005 -58.62434 34133 ft 465 kts 201°
2026-04-23 18:16 -32.17372 -58.63758 34107 ft 463 kts 201°
2026-04-23 18:16 -32.20587 -58.64430 33717 ft 463 kts 201°
2026-04-23 18:16 -32.23830 -58.65101 33357 ft 457 kts 201°
2026-04-23 18:17 -32.30044 -58.66396 32562 ft 450 kts 201°
2026-04-23 18:17 -32.33142 -58.66956 32162 ft 454 kts 196°
2026-04-23 18:17 -32.36327 -58.67003 31829 ft 461 kts 187°
2026-04-23 18:17 -32.39524 -58.66753 31455 ft 460 kts 185°
2026-04-23 18:18 -32.42709 -58.66443 31067 ft 458 kts 185°
2026-04-23 18:18 -32.45873 -58.66125 30680 ft 456 kts 185°
2026-04-23 18:18 -32.49029 -58.65820 30278 ft 454 kts 185°
2026-04-23 18:18 -32.52175 -58.65532 29833 ft 452 kts 185°
2026-04-23 18:19 -32.55299 -58.65259 29413 ft 448 kts 186°
2026-04-23 18:19 -32.58393 -58.64996 28991 ft 445 kts 186°
2026-04-23 18:19 -32.61473 -58.64738 28592 ft 441 kts 186°
2026-04-23 18:19 -32.64513 -58.64484 28208 ft 437 kts 186°
2026-04-23 18:20 -32.67543 -58.64231 27806 ft 434 kts 185°
2026-04-23 18:20 -32.70539 -58.63977 27431 ft 431 kts 185°
2026-04-23 18:20 -32.73508 -58.63724 27038 ft 427 kts 185°
2026-04-23 18:20 -32.76475 -58.63472 26661 ft 424 kts 185°
2026-04-23 18:21 -32.79409 -58.63226 26282 ft 421 kts 185°
2026-04-23 18:21 -32.82280 -58.62985 25910 ft 418 kts 185°
2026-04-23 18:21 -32.85164 -58.62744 25538 ft 415 kts 185°
2026-04-23 18:21 -32.88044 -58.62503 25170 ft 413 kts 185°
2026-04-23 18:22 -32.90982 -58.62256 24786 ft 410 kts 185°
2026-04-23 18:22 -32.93781 -58.62021 24419 ft 407 kts 184°
2026-04-23 18:22 -32.96599 -58.61784 24042 ft 405 kts 184°
2026-04-23 18:22 -32.99401 -58.61547 23668 ft 402 kts 184°
2026-04-23 18:23 -33.01277 -58.61444 23369 ft 397 kts 188°
2026-04-23 18:23 -33.07455 -58.62039 22749 ft 374 kts 194°
2026-04-23 18:24 -33.12560 -58.62692 22219 ft 364 kts 194°
2026-04-23 18:24 -33.15072 -58.63006 21969 ft 360 kts 194°
2026-04-23 18:24 -33.17551 -58.63308 21711 ft 356 kts 193°
2026-04-23 18:25 -33.22399 -58.63884 21143 ft 349 kts 193°
2026-04-23 18:25 -33.24809 -58.64167 20797 ft 347 kts 193°
2026-04-23 18:25 -33.27204 -58.64448 20450 ft 345 kts 192°
2026-04-23 18:25 -33.29587 -58.64726 20113 ft 343 kts 192°
2026-04-23 18:26 -33.31959 -58.65003 19775 ft 341 kts 192°
2026-04-23 18:26 -33.34317 -58.65278 19432 ft 340 kts 192°
2026-04-23 18:26 -33.36663 -58.65552 19086 ft 338 kts 192°
2026-04-23 18:26 -33.39000 -58.65825 18750 ft 337 kts 192°
2026-04-23 18:27 -33.41296 -58.66093 18411 ft 335 kts 192°
2026-04-23 18:27 -33.43614 -58.66363 18034 ft 334 kts 191°
2026-04-23 18:27 -33.45916 -58.66632 17665 ft 332 kts 191°
2026-04-23 18:27 -33.48201 -58.66899 17321 ft 329 kts 191°
2026-04-23 18:28 -33.50470 -58.67164 16982 ft 327 kts 191°
2026-04-23 18:28 -33.52727 -58.67427 16645 ft 325 kts 190°
2026-04-23 18:28 -33.54968 -58.67690 16315 ft 322 kts 190°
2026-04-23 18:28 -33.57193 -58.67950 15986 ft 320 kts 190°
2026-04-23 18:29 -33.59377 -58.68206 15660 ft 318 kts 190°
2026-04-23 18:29 -33.61183 -58.68418 15405 ft 317 kts 189°
2026-04-23 18:29 -33.63372 -58.68674 15076 ft 315 kts 189°
2026-04-23 18:29 -33.65555 -58.68931 14758 ft 314 kts 189°
2026-04-23 18:30 -33.67720 -58.69185 14435 ft 313 kts 189°
2026-04-23 18:30 -33.69884 -58.69439 14120 ft 311 kts 188°
2026-04-23 18:30 -33.72031 -58.69692 13778 ft 310 kts 188°
2026-04-23 18:30 -33.74177 -58.69944 13422 ft 309 kts 188°
2026-04-23 18:31 -33.76284 -58.70191 13093 ft 307 kts 188°
2026-04-23 18:31 -33.78406 -58.70440 12769 ft 305 kts 188°
2026-04-23 18:31 -33.80512 -58.70688 12455 ft 304 kts 188°
2026-04-23 18:31 -33.82608 -58.70935 12126 ft 302 kts 188°
2026-04-23 18:32 -33.84698 -58.71181 11816 ft 300 kts 188°
2026-04-23 18:32 -33.86769 -58.71426 11503 ft 299 kts 188°
2026-04-23 18:32 -33.88839 -58.71670 11195 ft 298 kts 188°
2026-04-23 18:32 -33.90897 -58.71913 10876 ft 297 kts 188°
2026-04-23 18:33 -33.92950 -58.72149 10600 ft 294 kts 187°
2026-04-23 18:33 -33.94967 -58.72359 10428 ft 289 kts 187°
2026-04-23 18:33 -33.96938 -58.72559 10314 ft 280 kts 187°
2026-04-23 18:33 -33.98856 -58.72752 10200 ft 273 kts 187°
2026-04-23 18:34 -34.00738 -58.72944 9947 ft 271 kts 187°
2026-04-23 18:34 -34.02611 -58.73136 9660 ft 270 kts 187°
2026-04-23 18:34 -34.04475 -58.73328 9383 ft 268 kts 187°
2026-04-23 18:34 -34.06336 -58.73521 9105 ft 268 kts 187°
2026-04-23 18:35 -34.08169 -58.73709 8816 ft 268 kts 187°
2026-04-23 18:35 -34.10025 -58.73901 8538 ft 267 kts 187°
2026-04-23 18:35 -34.11868 -58.74091 8256 ft 266 kts 187°
2026-04-23 18:35 -34.13690 -58.74278 8000 ft 265 kts 187°
2026-04-23 18:36 -34.15552 -58.74471 7704 ft 266 kts 187°
2026-04-23 18:36 -34.17396 -58.74662 7458 ft 266 kts 187°
2026-04-23 18:36 -34.19243 -58.74853 7153 ft 267 kts 187°
2026-04-23 18:36 -34.21098 -58.75046 6882 ft 268 kts 186°
2026-04-23 18:37 -34.22959 -58.75238 6599 ft 269 kts 186°
2026-04-23 18:37 -34.24198 -58.75367 6396 ft 270 kts 186°
2026-04-23 18:37 -34.26536 -58.75609 6038 ft 269 kts 186°
2026-04-23 18:37 -34.27776 -58.75738 5845 ft 270 kts 186°
2026-04-23 18:38 -34.29646 -58.75932 5556 ft 269 kts 186°
2026-04-23 18:38 -34.32105 -58.75852 5155 ft 270 kts 162°
2026-04-23 18:38 -34.33701 -58.74727 5006 ft 265 kts 139°
2026-04-23 18:38 -34.35008 -58.73173 4831 ft 263 kts 135°
2026-04-23 18:39 -34.35841 -58.72116 4655 ft 262 kts 134°
2026-04-23 18:39 -34.37084 -58.70525 4491 ft 259 kts 134°
2026-04-23 18:39 -34.37920 -58.69461 4340 ft 259 kts 135°
2026-04-23 18:40 -34.42315 -58.63950 3667 ft 250 kts 135°
2026-04-23 18:40 -34.43527 -58.62443 3512 ft 246 kts 135°
2026-04-23 18:40 -34.44697 -58.60985 3316 ft 244 kts 135°
2026-04-23 18:41 -34.45860 -58.59513 3210 ft 237 kts 132°
2026-04-23 18:41 -34.46836 -58.57975 3006 ft 224 kts 126°
2026-04-23 18:41 -34.47690 -58.56434 2693 ft 216 kts 124°
2026-04-23 18:41 -34.48503 -58.54951 2422 ft 206 kts 124°
2026-04-23 18:42 -34.49283 -58.53541 2163 ft 197 kts 124°
2026-04-23 18:42 -34.50032 -58.52190 1897 ft 190 kts 123°
2026-04-23 18:42 -34.50743 -58.50907 1655 ft 183 kts 123°
2026-04-23 18:42 -34.51452 -58.49628 1448 ft 177 kts 123°
2026-04-23 18:43 -34.52132 -58.48404 1219 ft 171 kts 122°
2026-04-23 18:43 -34.52774 -58.47245 1030 ft 158 kts 122°
2026-04-23 18:43 -34.53354 -58.46203 814 ft 142 kts 122°
2026-04-23 18:43 -34.53903 -58.45214 595 ft 142 kts 124°
2026-04-23 18:44 -34.54454 -58.44210 436 ft 140 kts 123°
2026-04-23 18:44 -34.55018 -58.43210 214 ft 145 kts 123°
2026-04-23 18:44 -34.55587 -58.42181 39 ft 141 kts 124°
2026-04-23 18:44 -34.56160 -58.41182 500 ft 143 kts 123°
2026-04-23 18:45 -34.56790 -58.40062 1056 ft 183 kts 125°
2026-04-23 18:45 -34.57550 -58.38725 1805 ft 207 kts 124°
2026-04-23 18:45 -34.58206 -58.37138 2456 ft 215 kts 102°
2026-04-23 18:45 -34.58097 -58.35330 2947 ft 221 kts 75°
2026-04-23 18:46 -34.57983 -58.33469 2970 ft 220 kts 100°
2026-04-23 18:46 -34.58208 -58.31650 3010 ft 217 kts 98°
2026-04-23 18:46 -34.58391 -58.29820 3034 ft 221 kts 97°
2026-04-23 18:46 -34.58403 -58.27943 3021 ft 235 kts 74°
2026-04-23 18:47 -34.57879 -58.26760 3030 ft 233 kts 46°
2026-04-23 18:47 -34.56512 -58.25850 3030 ft 228 kts
2026-04-23 18:47 -34.54956 -58.26054 3027 ft 223 kts 335°
2026-04-23 18:47 -34.53750 -58.27129 3023 ft 218 kts 307°
2026-04-23 18:48 -34.52940 -58.28692 3040 ft 221 kts 297°
2026-04-23 18:48 -34.52327 -58.30409 3033 ft 225 kts 285°
2026-04-23 18:48 -34.51922 -58.32239 3038 ft 225 kts 283°
2026-04-23 18:48 -34.51543 -58.34085 3024 ft 225 kts 283°
2026-04-23 18:49 -34.51162 -58.35904 2896 ft 222 kts 283°
2026-04-23 18:49 -34.50782 -58.37692 2641 ft 217 kts 284°
2026-04-23 18:49 -34.50404 -58.39438 2409 ft 210 kts 284°
2026-04-23 18:49 -34.50041 -58.41091 2298 ft 197 kts 284°
2026-04-23 18:50 -34.49811 -58.42136 2224 ft 189 kts 284°
2026-04-23 18:50 -34.49372 -58.44113 2078 ft 176 kts 285°
2026-04-23 18:50 -34.49065 -58.45486 2012 ft 168 kts 285°
2026-04-23 18:50 -34.48766 -58.46819 1959 ft 158 kts 285°
2026-04-23 18:51 -34.48491 -58.48046 1886 ft 146 kts 285°
2026-04-23 18:51 -34.48223 -58.49240 1749 ft 147 kts 285°
2026-04-23 18:51 -34.47962 -58.50440 1705 ft 146 kts 281°
2026-04-23 18:51 -34.48158 -58.51607 1696 ft 146 kts 232°
2026-04-23 18:52 -34.49035 -58.52055 1695 ft 145 kts 170°
2026-04-23 18:52 -34.49893 -58.51426 1719 ft 146 kts 141°
2026-04-23 18:52 -34.50685 -58.50686 1620 ft 146 kts 134°
2026-04-23 18:52 -34.51341 -58.49751 1473 ft 145 kts 128°
2026-04-23 18:53 -34.51928 -58.48767 1292 ft 142 kts 123°
2026-04-23 18:53 -34.52482 -58.47768 1090 ft 141 kts 122°
2026-04-23 18:53 -34.53031 -58.46778 914 ft 144 kts 123°
2026-04-23 18:53 -34.53591 -58.45780 740 ft 146 kts 121°
2026-04-23 18:54 -34.54153 -58.44753 544 ft 146 kts 124°
2026-04-23 18:54 -34.54714 -58.43756 319 ft 146 kts 123°
2026-04-23 18:54 -34.55270 -58.42756 113 ft 139 kts 122°
2026-04-23 18:54 -34.55785 -58.41830 25 ft 123 kts 123°
2026-04-23 18:55 -34.56141 -58.41190 27 ft 59 kts 124°
2026-04-23 18:55 -34.56275 -58.40948 26 ft 25 kts 123°
2026-04-23 18:55 -34.56365 -58.40791 26 ft 14 kts 126°
2026-04-23 18:55 -34.56402 -58.40691 24 ft 13 kts 75°
2026-04-23 18:56 -34.56328 -58.40693 24 ft 13 kts 319°
2026-04-23 18:56 -34.56261 -58.40763 24 ft 13 kts 319°
2026-04-23 18:56 -34.56198 -58.40834 26 ft 12 kts 311°
2026-04-23 18:56 -34.56156 -58.40922 26 ft 12 kts 299°
2026-04-23 18:57 -34.56110 -58.41004 26 ft 12 kts 306°
2026-04-23 18:57 -34.56062 -58.41081 24 ft 11 kts 307°
2026-04-23 18:57 -34.56015 -58.41156 26 ft 11 kts 307°
2026-04-23 18:57 -34.55970 -58.41229 26 ft 11 kts 307°
2026-04-23 18:58 -34.55923 -58.41297 28 ft 10 kts 326°
2026-04-23 18:58 -34.55855 -58.41285 27 ft 10 kts 359°
2026-04-23 18:58 -34.55807 -58.41339 24 ft 10 kts 301°
2026-04-23 18:58 -34.55787 -58.41376 26 ft 2 kts 304°
2026-04-23 18:59 -34.55774 -58.41388 26 ft 3 kts 350°
2026-04-23 18:59 -34.55752 -58.41376 24 ft 3 kts 30°
2026-04-23 18:59 -34.55739 -58.41366 24 ft 1 kts 32°